sat.trackr.live / text

‹ back to catalog

STARLINK-31929

NORAD 59836 · 2024-097B

PAYLOAD ACTIVE UNKNOWN

§ Identity

Operator
Country
US
Launch date
2024-05-23
Launch site
AFETR
Launch vehicle
Mass (kg)
RCS (m²)

Purposes: comms

External: N2YO · Heavens-Above · Gunter

§ Orbital elements

Epoch: 2026-05-24T20:48:56.668320Z

Period
94.27 min
Inclination
43.0005°
Eccentricity
0.0001062
Mean motion
15.27577511 rev/d
Perigee alt
482.3 km
Apogee alt
483.8 km
Semi-major
6,861.2 km
B*
1.2299e-5
RAAN
204.4560°
Arg perigee
276.8728°
Mean anomaly
83.2003°
Rev number
11,356

§ Raw data

STARLINK-319291 59836U 24097B   26144.86732255  .00000076  00000+0  12299-4 0  99972 59836  43.0005 204.4560 0001062 276.8728  83.2003 15.27577511113568

JSON: /api/v1/satellites/59836 · /tle

For live sub-satellite position, see the globe view (requires WebGL).

§ Visibility from observer

Set your observer location to see the next 7 days of passes ≥ 10°. The values pass through the URL so the page stays shareable.

No JS? Fill the form by hand. The geolocation button needs JavaScript.